Вернуться в каталог

SL-19 DEB

АктивенUNKNOWN
NORAD 23480·DEBRIS·🇷🇺 Russia

Запущен Dec 26, 1994 с Baikonur Cosmodrome

Loading…

Ближайшие Пролёты (ближайшие 24 часа)

TLE

СвежийSource: Space-Track

Эпоха: Sep 14, 2026, 05:27 UTC

1 23480U 94085D   26257.22762391 -.00000809  00000-0 -16882-1 0  9992
2 23480  64.7055 333.6796 0229051 129.0088 261.8228 11.46209978587534

Отслеживайте SL-19 DEB в реальном времени с AllMySat

Download on the App Store